sat.trackr.live / text

‹ back to catalog

STARLINK-3551

NORAD 51887 · 2022-022AM

PAYLOAD ACTIVE UNKNOWN

§ Identity

Operator
Country
US
Launch date
2022-03-03
Launch site
AFETR
Launch vehicle
Mass (kg)
RCS (m²)

Purposes: comms

External: N2YO · Heavens-Above · Gunter

§ Orbital elements

Epoch: 2026-09-19T07:03:27.017280Z

Period
93.85 min
Inclination
53.1606°
Eccentricity
0.0001212
Mean motion
15.34389369 rev/d
Perigee alt
461.9 km
Apogee alt
463.6 km
Semi-major
6,840.9 km
B*
3.1008e-5
RAAN
193.0116°
Arg perigee
79.7987°
Mean anomaly
280.3152°
Rev number
25,270

§ Raw data

STARLINK-35511 51887U 22022AM  26262.29406270  .00000671  00000+0  31008-4 0  99942 51887  53.1606 193.0116 0001212  79.7987 280.3152 15.34389369252704

JSON: /api/v1/satellites/51887 · /tle

For live sub-satellite position, see the globe view (requires WebGL).

§ Visibility from observer

Set your observer location to see the next 7 days of passes ≥ 10°. The values pass through the URL so the page stays shareable.

No JS? Fill the form by hand. The geolocation button needs JavaScript.